This is the latest recevied weather packets stored in our database for station/object KD4EG. If no packets are shown the sender has not sent any weather packets the latest 10 day(s).
| Time | Temp. | Humidity | Pressure | Rain* | Wind** | Luminosity | Snow |
|---|---|---|---|---|---|---|---|
| 1777840092 | 17.78° C | 28% | 1017.5 hPa | 0 mm | - | 432 W/m² | - |
| 1777839790 | 17.78° C | 28% | 1018 hPa | 0 mm | - | 511 W/m² | - |
| 1777839488 | 17.78° C | 29% | 1017.8 hPa | 0 mm | - | 539 W/m² | - |
| 1777839185 | 18.33° C | 27% | 1017.7 hPa | 0 mm | - | 530 W/m² | - |
| 1777838882 | 18.33° C | 28% | 1018 hPa | 0 mm | - | 523 W/m² | - |
| 1777838578 | 17.78° C | 30% | 1017.9 hPa | 0 mm | - | 533 W/m² | - |
| 1777838275 | 17.78° C | 29% | 1018.1 hPa | 0 mm | - | 561 W/m² | - |
| 1777837971 | 17.22° C | 30% | 1018.4 hPa | 0 mm | - | 576 W/m² | - |
| 1777837669 | 17.78° C | 30% | 1018.3 hPa | 0 mm | - | 582 W/m² | - |
| 1777837365 | 18.33° C | 29% | 1018.4 hPa | 0 mm | - | 593 W/m² | - |
| 1777837061 | 17.78° C | 29% | 1018.5 hPa | 0 mm | - | 606 W/m² | - |
| 1777836757 | 17.78° C | 29% | 1018.5 hPa | 0 mm | - | 606 W/m² | - |
| 1777836453 | 16.67° C | 33% | 1018.4 hPa | 0 mm | - | 626 W/m² | - |
| 1777836148 | 16.67° C | 34% | 1018.5 hPa | 0 mm | - | 609 W/m² | - |
| 1777835846 | 17.22° C | 31% | 1018.7 hPa | 0 mm | - | 621 W/m² | - |
| 1777835542 | 17.22° C | 30% | 1018.8 hPa | 0 mm | - | 637 W/m² | - |
| 1777835240 | 16.67° C | 32% | 1018.8 hPa | 0 mm | - | 630 W/m² | - |
| 1777834936 | 16.67° C | 29% | 1018.7 hPa | 0 mm | - | 647 W/m² | - |
| 1777834634 | 16.67° C | 29% | 1019.4 hPa | 0 mm | - | 640 W/m² | - |
| 1777834329 | 16.67° C | 30% | 1019 hPa | 0 mm | - | 623 W/m² | - |
| 1777834023 | 16.67° C | 29% | 1019.3 hPa | 0 mm | - | 626 W/m² | - |
| 1777833720 | 16.67° C | 28% | 1019.4 hPa | 0 mm | - | 651 W/m² | - |
| 1777833416 | 17.22° C | 31% | 1019.6 hPa | 0 mm | - | 670 W/m² | - |
| 1777833114 | 16.11° C | 30% | 1019.7 hPa | 0 mm | - | 656 W/m² | - |
| 1777832812 | 16.11° C | 30% | 1019.7 hPa | 0 mm | - | 644 W/m² | - |
* Rain latest hour (hover to see other rain measurements)
** Current wind speed in m/s (hover to see current wind gust speed)